{"data":{"norad_id":61000,"epoch":"2026-09-21T14:17:11.715072Z","epoch_age_seconds":97455,"freshness":"FRESH","line1":"1 61000U 24158L   26264.59527448 -.00000606  00000+0 -15159-6 0  9991","line2":"2 61000  53.1593  35.5314 0000760  67.5392 292.5706 15.69710930118429","mean_motion":15.6971093,"eccentricity":7.6e-5,"inclination_deg":53.1593,"raan_deg":35.5314,"arg_perigee_deg":67.5392,"mean_anomaly_deg":292.5706,"bstar":-1.5159e-7,"rev_number":11842,"period_min":91.736635865815,"perigee_km":359.21201167431,"apogee_km":360.23616655985,"semimajor_km":6737.8610891171,"source":"CELESTRAK","updated_at":"2026-09-22T09:00:49.296541Z"}}